EHI
0 0 0 0 0 0 0 0 0 0 0 0 0 0 0 0 0 0 0 0 0 0 0 0 0 0 1 2 3 3 3 2 3 5 4 2 1 0 0 0 1 2 3 3 3 2 1 0 0
0 0 0 0 0 0 0 0 0 0 0 0 0 0 0 0 0 0 0 0 0 0 0 0 0 0 0 1 2 1 1 1 2 3 2 1 0 0 0 0 1 2 2 3 3 2 1 1 0
0 0 0 0 0 0 0 0 0 0 0 0 0 0 0 0 0 0 0 0 0 0 0 0 0 0 0 0 0 0 0 1 1 0 0 0 0 0 0 0 0 1 1 1 2 1 1 1 1
0 0 0 0 0 0 0 0 0 0 0 0 0 0 0 0 0 0 0 0 0 0 0 0 0 0 0 0 0 0 0 0 0 0 0 0 0 0 0 0 0 0 0 0 0 0 1 1 0
0 0 0 0 0 0 0 0 0 0 0 0 0 0 0 0 0 0 0 0 0 0 0 0 0 0 0 0 0 0 0 0 0 0 0 0 0 0 0 0 0 0 0 0 0 0 0 0 0
0 0 0 0 0 0 0 0 0 0 0 0 0 0 0 0 0 0 0 0 0 0 0 0 0 0 0 0 0 0 0 0 0 0 0 0 0 0 0 0 0 0 0 0 0 0 0 0 0
0 0 0 0 0 0 0 0 0 0 0 0 0 0 0 0 0 0 0 0 0 0 0 0 0 0 0 0 0 0 0 0 0 0 0 0 0 0 0 0 0 0 0 0 0 0 0 0 0
0 0 0 0 0 0 0 0 0 0 0 0 0 0 0 0 0 0 0 0 0 0 0 0 0 0 0 0 0 0 0 0 0 0 0 0 0 0 0 0 0 0 0 0 0 0 0 0 0
0 0 0 0 0 0 0 0 0 0 0 0 0 0 0 0 0 0 0 0 0 0 0 0 0 0 0 0 0 0 0 0 0 0 0 0 0 0 0 0 0 0 0 0 0 0 0 0 0
0 0 0 0 0 0 0 0 0 0 0 0 0 0 0 0 0 0 0 0 0 0 0 0 0 0 0 0 0 0 0 0 0 0 0 0 0 0 0 0 0 0 0 0 0 0 0 0 0
0 0 0 0 0 0 0 0 0 0 0 0 0 0 0 0 0 0 0 0 0 0 0 0 0 0 0 0 0 0 0 0 0 0 0 0 0 0 0 0 0 0 0 0 0 0 0 0 0
0 0 0 0 0 0 0 0 0 0 0 0 0 0 0 0 0 0 0 0 0 0 0 0 0 0 0 0 0 0 0 0 0 0 0 0 0 0 0 0 0 0 0 0 0 0 0 0 0
0 0 0 0 0 0 0 0 0 0 0 0 0 0 0 0 0 0 0 0 0 0 0 0 0 0 0 0 0 0 0 0 0 0 0 0 0 0 0 0 0 0 0 0 0 0 0 0 0
0 0 0 0 0 0 0 0 0 0 0 0 0 0 0 0 0 0 0 0 0 0 0 0 0 0 0 0 0 0 0 0 0 0 0 0 0 0 0 0 0 0 0 0 0 0 0 0 0
0 0 0 0 0 0 0 0 0 0 0 0 0 0 0 0 0 0 0 0 0 0 0 0 0 0 0 0 0 0 0 0 0 0 0 0 0 0 0 0 0 0 0 0 0 0 0 0 0
0 0 0 0 0 0 0 0 0 0 0 0 0 0 0 0 0 0 0 0 0 0 0 0 0 0 0 0 0 0 0 0 0 0 0 0 0 0 0 0 0 0 0 0 0 0 0 0 0
0 0 0 0 0 0 0 0 0 0 0 0 0 0 0 0 0 0 0 0 0 0 0 0 0 0 0 0 0 0 0 0 0 0 0 0 0 0 0 0 0 0 0 0 0 0 0 0 0
0 0 0 0 0 0 0 0 0 0 0 0 0 0 0 0 0 0 0 0 0 0 0 0 0 0 0 0 0 0 0 0 0 0 0 0 0 0 0 0 0 0 0 0 0 0 0 0 0
0 0 0 0 0 0 0 0 0 0 0 0 0 0 0 0 0 0 0 0 0 0 0 0 0 0 0 0 0 0 0 0 0 0 0 0 0 0 0 0 0 0 0 0 0 0 0 0 0
0 0 0 0 0 0 0 0 0 0 0 0 0 0 0 0 0 0 0 0 0 0 0 0 0 0 0 0 0 0 0 0 0 0 0 0 0 0 0 0 0 0 0 0 0 0 0 0 0
0 0 0 0 0 0 0 0 0 0 0 0 0 0 0 0 0 0 0 0 0 0 0 0 0 0 0 0 0 0 0 0 0 0 0 0 0 0 0 0 0 0 0 0 0 0 0 0 0
0 0 0 0 0 0 0 0 0 0 0 0 0 0 0 0 0 0 0 0 0 0 0 0 0 0 0 0 0 0 0 0 0 0 0 0 0 0 0 0 0 0 0 0 0 0 0 0 0
0 0 0 0 0 0 0 0 0 0 0 0 0 0 0 0 0 0 0 0 0 0 0 0 0 0 0 0 0 0 0 0 0 0 0 0 0 0 0 0 0 0 0 0 0 0 0 0 0
0 0 0 0 0 0 0 0 0 0 0 0 0 0 0 0 0 0 0 0 0 0 0 0 0 0 0 0 0 0 0 0 0 0 0 0 0 0 0 0 0 0 0 0 0 0 0 0 0
0 0 0 0 0 0 0 0 0 0 0 0 0 0 0 0 0 0 0 0 0 0 0 0 0 0 0 0 0 0 0 0 0 0 0 0 0 0 0 0 0 0 0 0 0 0 0 0 0
0 0 0 0 0 0 0 0 0 0 0 0 0 0 0 0 0 0 0 0 0 0 0 0 0 0 0 0 0 0 0 0 0 0 0 0 0 0 0 0 0 0 0 0 0 0 0 0 0
0 0 0 0 0 0 0 0 0 0 0 0 0 0 0 0 0 0 0 0 0 0 0 0 0 0 0 0 0 0 0 0 0 0 0 0 0 0 0 0 0 0 0 0 0 0 0 0 0
0 0 0 0 0 0 0 0 0 0 0 0 0 0 0 0 0 0 0 0 0 0 0 0 0 0 0 0 0 0 0 0 0 0 0 0 0 0 0 0 0 0 0 0 0 0 0 0 0
0 0 0 0 0 0 0 0 0 0 0 0 0 0 0 0 0 0 0 0 0 0 0 0 0 0 0 0 0 0 0 0 0 0 0 0 0 0 0 0 0 0 0 0 0 0 0 0 0
0 0 0 0 0 0 0 0 0 0 0 0 0 0 0 0 0 0 0 0 0 0 0 0 0 0 0 0 0 0 0 0 0 0 0 0 0 0 0 0 0 0 0 0 0 0 0 0 0
Wind_Speed
3 3 3 3 5 4 2 1 0 1 3 2 4 6 6 5 3 3 0 1 3 2 3 4 8 9 10 10 10 11 11 11 11 10 10 10 10 10 10 10 9 9 9 10 10 9 9 9 9
1 2 4 4 5 3 1 1 1 2 4 4 4 5 6 5 3 3 1 2 4 4 3 4 9 9 9 10 10 10 10 10 10 10 9 9 9 9 9 9 9 9 9 9 9 9 9 9 9
2 2 4 4 3 2 1 0 2 4 4 3 4 5 4 3 3 2 2 4 5 4 4 4 8 8 9 9 9 10 9 9 9 9 9 9 9 8 8 8 8 8 8 8 8 9 9 9 8
3 4 4 5 3 0 1 1 3 4 4 5 4 5 3 3 2 3 4 5 5 4 3 4 8 8 8 9 9 9 9 9 9 9 9 9 8 7 7 8 7 7 8 8 8 8 8 8 8
4 4 5 3 2 2 1 1 1 3 3 3 4 5 3 4 5 7 6 5 5 4 3 3 7 7 8 8 8 9 9 9 9 8 8 8 7 7 7 7 7 7 7 8 7 7 8 8 8
4 4 5 2 1 2 1 1 3 5 4 4 4 4 3 3 5 5 5 5 4 4 3 4 6 8 8 8 8 7 7 7 8 7 7 7 7 6 6 7 7 7 7 7 8 7 8 8 8
4 4 3 2 1 2 1 2 3 4 5 3 3 4 3 2 3 5 5 5 4 4 4 4 4 5 7 7 7 7 7 7 7 7 7 6 6 6 6 6 6 7 7 7 8 7 8 8 8
4 5 3 2 2 1 1 2 3 4 4 3 2 5 4 3 5 6 6 5 4 4 4 4 4 5 4 4 6 7 8 8 7 7 7 7 7 7 7 7 6 6 7 7 7 7 8 8 8
3 5 2 2 3 1 1 3 3 3 5 3 3 3 4 7 7 7 5 4 3 2 2 3 3 4 4 3 5 6 7 8 7 7 8 7 5 5 5 7 7 7 8 8 8 9 9 9 8
4 4 2 2 3 3 3 3 3 4 4 4 4 5 7 7 7 7 5 3 2 1 1 2 2 3 3 3 4 3 3 4 4 4 4 3 3 4 5 8 9 9 9 9 9 9 8 7 4
3 3 1 2 2 4 4 3 3 6 3 3 6 8 7 7 6 6 4 3 3 1 0 1 2 2 2 2 2 2 2 2 3 4 3 3 3 3 4 3 4 5 6 5 5 6 4 4 3
4 3 2 2 2 3 3 3 4 3 2 3 6 8 7 7 6 5 5 3 3 2 1 1 2 2 2 2 2 2 1 2 2 2 3 2 2 3 3 2 3 3 2 3 3 3 4 5 5
4 2 3 4 5 5 6 5 4 3 2 4 7 7 7 6 4 3 3 3 3 3 2 1 2 2 2 2 1 2 2 2 2 2 2 3 2 2 2 2 3 3 3 3 3 4 4 5 5
4 5 4 4 5 3 6 3 3 1 3 6 7 6 5 5 5 4 4 4 3 3 3 2 2 2 3 2 2 2 2 2 2 2 2 3 2 2 2 3 3 3 3 3 3 4 4 4 4
5 5 5 3 3 2 5 4 1 2 4 5 5 5 4 4 5 5 5 4 4 4 3 3 3 3 3 3 3 2 2 2 3 2 3 3 3 3 3 2 3 2 2 3 4 4 4 5 5
4 4 2 2 1 2 4 1 1 2 5 4 4 4 4 3 4 4 4 4 4 4 4 3 4 4 4 3 3 2 2 3 2 2 3 3 3 3 3 3 2 2 2 3 4 4 4 4 4
3 2 1 1 0 2 3 3 2 3 5 4 4 4 4 3 3 4 4 5 5 5 4 4 4 4 4 4 3 3 3 3 3 3 3 3 3 3 3 3 2 3 3 3 3 4 3 4 4
3 2 2 2 1 3 3 2 3 4 5 4 4 4 4 5 5 4 5 4 5 4 4 4 4 4 4 4 4 3 3 3 3 3 3 3 3 4 3 3 3 3 3 3 4 4 4 3 4
4 3 2 2 1 3 3 3 4 4 4 5 4 5 6 6 4 3 4 5 5 4 4 4 4 3 3 3 3 2 1 1 2 2 3 3 3 4 4 3 3 3 3 3 3 3 5 4 2
4 3 1 0 1 2 2 3 3 4 6 6 7 7 7 5 4 4 5 5 6 5 5 4 4 4 3 3 2 2 2 2 1 2 3 4 4 3 3 4 3 3 3 4 3 3 3 2 3
2 4 4 2 2 3 2 3 3 3 3 4 5 6 7 8 8 6 6 7 6 7 6 5 4 4 3 4 3 3 3 3 2 2 2 3 3 3 3 3 3 3 3 3 2 2 3 2 2
2 3 4 3 3 1 1 2 5 4 4 6 6 6 7 7 7 7 7 7 8 7 6 5 5 4 4 4 4 5 3 2 1 1 1 2 3 4 4 3 4 3 3 3 2 2 2 3 2
3 3 4 3 3 1 1 1 7 2 5 8 8 8 8 8 8 8 9 8 7 6 6 5 5 4 4 4 5 5 3 2 1 2 3 3 3 3 4 4 4 3 3 3 3 3 3 2 2
5 6 5 4 4 1 3 3 6 5 8 7 8 9 9 8 8 7 6 6 6 5 5 5 5 4 4 5 5 6 6 4 4 3 2 2 2 2 3 3 3 3 3 3 3 3 4 3 3
5 6 3 3 2 4 2 3 9 8 7 9 9 10 9 9 8 8 8 8 8 7 7 6 6 5 4 5 5 6 6 6 5 4 3 2 1 1 1 2 2 2 2 3 3 4 3 3 3
3 6 6 3 3 4 1 5 8 6 5 5 6 6 7 8 8 9 9 9 9 9 8 7 7 5 5 5 5 4 5 4 3 3 3 3 2 2 2 2 3 3 3 3 4 3 3 3 3
5 3 4 5 2 2 4 6 8 2 1 1 3 5 7 8 9 9 9 9 9 9 8 8 7 6 6 5 5 5 5 4 4 3 3 2 2 2 3 3 3 3 3 4 4 3 3 3 3
5 6 4 4 3 3 5 4 5 3 2 2 3 5 7 7 8 8 8 9 8 8 7 7 7 7 6 6 5 5 4 4 4 4 4 3 3 3 4 3 3 3 3 4 4 3 3 4 3
4 3 4 4 4 4 3 7 6 6 5 5 6 6 7 8 9 8 8 8 7 7 7 7 6 5 5 5 4 5 4 4 4 4 4 4 3 3 4 3 4 3 3 3 4 3 3 4 3
5 6 7 5 3 3 3 8 5 4 5 5 5 5 6 7 7 7 7 7 7 7 7 7 7 6 6 5 5 5 4 4 4 4 4 4 4 3 3 4 4 4 3 3 4 4 3 3 3
Wind_Direction
61 84 83 61 56 54 52 343 51 90 70 58 64 77 84 73 80 115 76 80 98 86 87 106 107 103 102 101 100 98 96 96 95 93 92 91 91 91 89 86 85 83 81 81 77 75 71 69 67
105 100 62 63 80 72 359 332 77 88 128 124 71 67 71 68 64 91 89 85 90 85 79 100 105 104 104 102 101 100 97 95 96 96 94 90 89 89 87 86 85 82 80 78 73 70 69 65 63
112 64 81 72 85 134 145 57 112 84 91 89 76 56 68 70 82 101 123 109 90 84 73 91 101 106 107 103 100 100 99 95 95 94 93 91 89 86 83 83 82 79 79 78 72 66 64 63 63
86 50 56 68 71 28 153 142 127 113 70 53 86 72 61 30 86 116 115 103 94 83 75 96 104 105 107 104 99 98 97 92 92 92 91 90 87 83 82 80 77 75 77 78 75 70 66 62 63
62 74 63 58 39 15 42 145 111 97 85 63 81 85 54 20 88 107 106 100 98 83 67 82 104 105 103 103 100 97 93 91 91 90 87 86 83 82 79 75 71 70 70 72 71 69 64 60 61
59 67 80 87 51 31 18 60 93 82 88 84 85 92 63 54 92 102 100 98 94 88 66 54 83 94 94 97 96 92 89 87 85 83 80 78 75 72 71 69 65 64 65 63 64 63 59 60 61
100 89 104 120 102 48 51 72 98 107 94 79 93 95 96 94 94 99 96 90 80 70 63 47 45 59 68 78 86 85 80 81 81 75 70 67 63 62 61 61 61 58 56 55 57 61 62 63 62
114 97 86 98 123 94 48 71 76 95 98 81 81 121 142 150 118 97 87 80 71 61 55 49 41 43 43 42 64 73 73 71 71 70 65 57 50 47 43 40 45 49 47 48 52 58 65 67 64
85 77 117 174 159 144 81 85 58 60 87 69 63 99 122 125 116 104 92 76 70 68 42 44 42 39 40 38 48 51 56 53 53 52 55 50 35 29 29 30 43 48 45 45 52 60 65 66 60
78 105 184 193 162 131 99 96 109 90 78 76 80 87 109 118 120 123 127 130 128 125 45 51 52 45 40 45 46 33 38 36 42 45 44 40 36 29 36 32 42 48 51 52 54 58 60 58 49
84 128 142 83 109 116 109 90 84 113 104 162 150 139 132 128 126 133 142 148 159 159 109 73 78 61 58 50 50 33 32 33 36 43 47 45 41 33 34 30 29 34 44 44 45 50 51 56 55
87 60 99 105 97 92 102 98 77 86 159 158 146 142 140 144 146 150 154 157 148 137 134 105 106 85 74 73 62 46 40 45 43 38 46 52 47 40 33 31 26 32 34 47 49 56 58 60 58
81 77 61 84 79 87 89 85 95 57 63 106 124 131 145 150 144 139 144 140 134 136 137 132 120 112 97 82 71 66 48 59 57 47 43 61 63 51 41 32 32 32 39 56 59 61 64 65 62
105 89 74 69 73 76 96 80 83 79 106 122 136 147 158 159 154 145 143 139 143 154 155 136 123 115 104 95 88 75 59 62 64 54 52 69 72 67 58 44 37 34 41 55 68 70 73 67 67
93 80 51 35 61 86 96 62 76 166 135 138 151 157 160 170 164 167 170 162 157 155 146 138 131 107 105 100 90 80 66 69 64 54 58 71 73 74 74 62 47 36 45 63 69 66 70 73 68
71 71 62 339 66 103 109 150 241 152 143 153 162 161 168 182 181 181 173 161 156 147 140 141 128 112 106 98 87 76 67 66 60 60 60 66 72 77 77 69 52 44 57 67 75 68 71 68 68
56 110 154 270 175 125 127 186 210 158 154 173 181 179 179 184 190 187 179 170 157 151 140 124 115 117 113 102 88 75 65 61 55 53 54 56 64 70 77 71 55 56 64 62 78 68 78 79 76
173 157 172 215 215 128 149 198 195 180 177 193 194 190 192 199 210 195 180 167 152 145 134 126 116 112 112 100 82 65 52 44 47 47 46 54 58 67 74 71 55 60 72 62 67 78 67 74 82
142 141 169 233 189 137 179 208 216 194 194 205 208 203 205 210 208 188 172 157 148 144 141 144 137 135 124 104 98 91 71 37 37 40 44 54 60 66 71 71 59 60 75 77 81 83 75 60 60
127 133 155 358 116 143 184 249 242 205 207 207 207 210 210 205 192 188 174 168 167 165 162 157 153 148 142 127 123 119 115 87 63 38 46 45 56 60 75 77 74 68 79 73 70 82 86 57 38
149 171 183 174 68 53 87 318 275 248 223 221 217 212 209 202 197 194 188 185 173 175 177 174 169 157 148 134 111 87 67 54 42 34 35 29 50 61 70 78 79 71 80 89 79 88 104 104 42
200 201 162 142 111 292 135 274 275 240 240 228 221 211 212 209 198 192 190 189 187 186 177 170 166 160 155 144 137 133 132 129 148 108 69 49 53 61 64 73 75 74 73 81 79 76 87 109 92
179 122 117 122 124 61 353 205 280 243 237 236 225 217 212 204 197 195 195 193 189 180 171 168 161 159 160 155 150 139 132 135 117 89 81 63 49 53 61 68 72 71 69 73 74 74 74 85 105
120 81 65 57 72 305 225 189 270 231 221 226 220 216 206 199 196 194 188 177 179 174 168 165 161 165 162 157 154 153 152 147 129 116 107 82 55 44 52 72 73 74 71 70 74 78 80 78 86
96 93 51 11 7 260 237 212 250 241 224 212 211 211 202 192 188 184 179 178 179 179 177 172 166 171 171 161 163 165 164 158 155 153 146 132 103 69 55 77 82 80 78 77 75 75 71 74 83
160 137 151 185 222 278 277 241 257 258 243 215 205 199 189 188 188 188 187 184 183 183 179 173 173 176 175 169 171 167 164 159 161 161 153 150 150 151 131 113 98 91 87 84 77 72 67 70 75
143 165 160 133 162 264 273 283 300 308 335 188 182 179 190 192 190 190 187 184 183 182 182 176 175 179 180 174 167 165 166 163 161 158 147 144 144 135 123 116 106 94 90 90 88 76 66 72 68
144 146 112 126 156 257 287 275 258 270 248 216 195 197 201 194 191 189 187 186 185 182 175 168 172 181 177 170 171 167 170 169 162 151 150 149 141 126 124 117 111 102 95 94 92 80 71 77 63
130 132 130 132 158 169 263 273 233 223 213 207 212 207 199 194 193 191 190 184 176 169 168 170 175 173 169 169 164 155 162 157 150 152 159 155 143 138 135 133 125 116 108 104 101 95 88 84 70
169 173 154 159 201 179 195 268 274 242 222 207 214 211 197 194 193 189 181 169 168 170 171 173 177 179 175 167 159 159 156 151 151 159 163 152 146 143 139 133 126 125 119 115 116 116 105 105 99